[[{"header":{"parameterUnit":"m.s-1","parameterCategory":2,"la1":30.2992,"la2":30.254,"lo1":-89.0895,"lo2":-89.0443,"dy":0.0025,"dx":0.0025,"nx":19,"ny":19,"refTime":"2026-04-30T21:00:00:Z","depth":"0","parameterNumber":2,"parameterNumberName":"U-component_of_CURRENTS"},"data":[0,0,0,0.0552,0.0553,0.06,0.06,0.0616,0.0616,0,0,0,0,0,0,0,0,0,0,0,0.0535,0.0535,0.0552,0.0554,0.06,0.06,0.0616,0.0616,0,0,0,0,0,0,0,0,0,0,0,0.0535,0.0535,0.0536,0.0554,0.06,0.06,0.0616,0.059,0,0,0,0,0,0,0,0,0,0,0.055,0.0539,0.0535,0.0536,0.0554,0.06,0.06,0.0589,0.0591,0.0585,0,0.0599,0,0.0611,0.0617,0.0617,0,0,0,0.0546,0.0537,0.0555,0.0536,0.0555,0.06,0.0577,0.0591,0.0593,0.0588,0.0599,0.06,0.0611,0.0617,0.0617,0.0662,0.0662,0,0,0.0544,0.0536,0.0553,0.0557,0.0575,0.0575,0.0578,0.0593,0.0595,0.0599,0.0601,0.0612,0.0617,0.0617,0.0661,0.0662,0,0,0,0.0541,0.0534,0.0552,0.0556,0.057,0.0577,0.058,0.0594,0.0602,0.0601,0.0612,0.0617,0.0617,0.0661,0.0662,0.0722,0,0,0,0.054,0.0533,0.0551,0.0546,0.057,0.0588,0.0581,0.0601,0.0603,0.0612,0.0617,0.0617,0.0661,0.0661,0.0719,0.0744,0,0,0,0.0531,0.0532,0.0542,0.0545,0.0569,0.0588,0.0597,0.0602,0.061,0.0617,0.0617,0.066,0.0661,0.0717,0.074,0.0787,0,0,0,0.0516,0.0543,0.0542,0.0577,0.0569,0.0616,0.0597,0.0625,0.0636,0.0617,0.0661,0.0662,0.0716,0.0737,0.0784,0.0838,0.0855,0,0,0.0543,0.0546,0.0569,0.0569,0.0622,0.0609,0.066,0.0662,0.0646,0.065,0.0652,0.072,0.0739,0.0787,0.0894,0.091,0,0,0,0.0574,0.0591,0.0607,0.0637,0.0662,0.0691,0.0692,0.0696,0.0713,0.0659,0.0723,0.0733,0.0761,0.0788,0.08,0.0872,0.0666,0.0666,0.0666,0.0593,0.0616,0.0659,0.0691,0.0718,0.0748,0.0772,0.0776,0.0753,0.0772,0.0785,0.0864,0.0893,0.0903,0.0976,0.0788,0.0788,0.0788,0.0788,0.0639,0.0668,0.0695,0.0744,0.0773,0.0811,0.0846,0.0846,0.0886,0.0845,0.087,0.0852,0.092,0.0993,0.0792,0.0792,0.0791,0.0791,0.0791,0.0652,0.0671,0.0701,0.0763,0.0816,0.0852,0.0915,0.0933,0.094,0.0969,0.0997,0.0997,0.1059,0.0986,0.0986,0.0987,0.0987,0.0987,0.0987,0.0652,0.0685,0.0724,0.0785,0.0822,0.0884,0.0959,0.1002,0.1065,0.107,0.107,0.1105,0.0924,0.0914,0.0992,0.0992,0.0991,0.099,0.099,0.068,0.0684,0.0742,0.0779,0.0862,0.0924,0.1,0.1124,0.1173,0.1217,0.1276,0.1125,0.1111,0.1101,0.1095,0.1216,0.1216,0.1216,0.1216,0.0685,0.0694,0.0759,0.0809,0.0877,0.0942,0.1063,0.1179,0.1326,0.1402,0.141,0.1388,0.1375,0.1375,0.1359,0.1356,0.1541,0.1541,0.1542,0.0702,0.0721,0.0759,0.0806,0.0877,0.0961,0.1066,0.1207,0.1447,0.156,0.1505,0.1491,0.1459,0.1433,0.1425,0.1396,0.1388,0,0]},{"header":{"parameterUnit":"m.s-1","parameterCategory":2,"la1":30.2992,"la2":30.254,"lo1":-89.0895,"lo2":-89.0443,"dy":0.0025,"dx":0.0025,"nx":19,"ny":19,"refTime":"2026-04-30T21:00:00:Z","depth":"0","parameterNumber":3,"parameterNumberName":"V-component_of_CURRENTS"},"data":[0,0,0,-0.0646,-0.0646,-0.066,-0.066,-0.0694,-0.0694,0,0,0,0,0,0,0,0,0,0,0,-0.064,-0.064,-0.0646,-0.0646,-0.066,-0.066,-0.0694,-0.0694,0,0,0,0,0,0,0,0,0,0,0,-0.064,-0.064,-0.064,-0.0646,-0.066,-0.066,-0.0694,-0.0679,0,0,0,0,0,0,0,0,0,0,-0.0664,-0.0654,-0.064,-0.064,-0.0646,-0.066,-0.066,-0.0678,-0.068,-0.0692,0,-0.0693,0,-0.0695,-0.0697,-0.0697,0,0,0,-0.0647,-0.0653,-0.0659,-0.064,-0.0646,-0.066,-0.0654,-0.0679,-0.0681,-0.0695,-0.0693,-0.0695,-0.0696,-0.0697,-0.0697,-0.0718,-0.0718,0,0,-0.0646,-0.0642,-0.0657,-0.066,-0.0649,-0.0653,-0.0654,-0.068,-0.0681,-0.0694,-0.0695,-0.0697,-0.0697,-0.0698,-0.0718,-0.0718,0,0,0,-0.0644,-0.0641,-0.0646,-0.0658,-0.066,-0.0654,-0.0655,-0.068,-0.0682,-0.0696,-0.0697,-0.0697,-0.0698,-0.0718,-0.0718,-0.0687,0,0,0,-0.0643,-0.064,-0.0645,-0.0643,-0.0659,-0.0668,-0.0654,-0.068,-0.0683,-0.0697,-0.0697,-0.0698,-0.0718,-0.0718,-0.0688,-0.0666,0,0,0,-0.064,-0.0639,-0.0641,-0.0643,-0.0649,-0.0667,-0.0671,-0.0681,-0.0684,-0.0697,-0.0698,-0.0718,-0.0718,-0.0689,-0.0668,-0.0669,0,0,0,-0.0635,-0.0623,-0.0641,-0.0628,-0.0648,-0.0644,-0.067,-0.0672,-0.0679,-0.0698,-0.0718,-0.0718,-0.0689,-0.0669,-0.067,-0.0676,-0.0672,0,0,-0.0613,-0.062,-0.0612,-0.0628,-0.0612,-0.0642,-0.0634,-0.0658,-0.0683,-0.0711,-0.0711,-0.0688,-0.0668,-0.0669,-0.0667,-0.0663,0,0,0,-0.0601,-0.0593,-0.0592,-0.059,-0.0598,-0.0605,-0.063,-0.0649,-0.0675,-0.0687,-0.0693,-0.0681,-0.0683,-0.0689,-0.0686,-0.0878,-0.0717,-0.0717,-0.0717,-0.0561,-0.0566,-0.0547,-0.0553,-0.0555,-0.0581,-0.0592,-0.0625,-0.0654,-0.0663,-0.0661,-0.0645,-0.0651,-0.0649,-0.0846,-0.0671,-0.0671,-0.0671,-0.0671,-0.0517,-0.0501,-0.0512,-0.0496,-0.0514,-0.0516,-0.0559,-0.0585,-0.0617,-0.064,-0.0644,-0.0662,-0.0644,-0.0856,-0.0669,-0.0669,-0.0669,-0.0669,-0.067,-0.0485,-0.0474,-0.0473,-0.0454,-0.0451,-0.0476,-0.0478,-0.0526,-0.0581,-0.0586,-0.0614,-0.0615,-0.0798,-0.0597,-0.0597,-0.0597,-0.0597,-0.0597,-0.0596,-0.0447,-0.0443,-0.0419,-0.0408,-0.0396,-0.0396,-0.0433,-0.0458,-0.0526,-0.0576,-0.0577,-0.082,-0.0623,-0.0623,-0.0595,-0.0595,-0.0595,-0.0596,-0.0596,-0.039,-0.0398,-0.0362,-0.0346,-0.0318,-0.0306,-0.0343,-0.0408,-0.0455,-0.0493,-0.0811,-0.0582,-0.0594,-0.0597,-0.0597,-0.0564,-0.0564,-0.0564,-0.0564,-0.0351,-0.0353,-0.0307,-0.0275,-0.0244,-0.026,-0.028,-0.0381,-0.0648,-0.0824,-0.0909,-0.0958,-0.0951,-0.0988,-0.0983,-0.0992,-0.1061,-0.1062,-0.1063,-0.0307,-0.0307,-0.0265,-0.0246,-0.0208,-0.0216,-0.0259,-0.0426,-0.0849,-0.1105,-0.1178,-0.1157,-0.1252,-0.1225,-0.1299,-0.1276,-0.1296,0,0]}],[{"header":{"parameterUnit":"m.s-1","parameterCategory":2,"la1":30.2992,"la2":30.254,"lo1":-89.0895,"lo2":-89.0443,"dy":0.0025,"dx":0.0025,"nx":19,"ny":19,"refTime":"2026-04-30T21:00:00:Z","depth":"2","parameterNumber":2,"parameterNumberName":"U-component_of_CURRENTS"},"data":[0,0,0,0.0562,0.0563,0.0609,0.0609,0.0626,0.0626,0,0,0,0,0,0,0,0,0,0,0,0.0544,0.0545,0.0562,0.0563,0.0609,0.0609,0.0626,0.0626,0,0,0,0,0,0,0,0,0,0,0,0.0544,0.0545,0.0545,0.0563,0.0609,0.0609,0.0626,0.06,0,0,0,0,0,0,0,0,0,0,0.056,0.0549,0.0545,0.0545,0.0564,0.0609,0.0609,0.0599,0.0601,0.0595,0,0.0609,0,0.0621,0.0627,0.0627,0,0,0,0.0556,0.0547,0.0565,0.0546,0.0564,0.0609,0.0586,0.0601,0.0603,0.0598,0.0609,0.061,0.0621,0.0627,0.0627,0.0672,0.0672,0,0,0.0554,0.0545,0.0563,0.0567,0.0585,0.0585,0.0588,0.0603,0.0605,0.061,0.0611,0.0622,0.0627,0.0627,0.0672,0.0672,0,0,0,0.0551,0.0544,0.0562,0.0565,0.0579,0.0587,0.059,0.0604,0.0612,0.0611,0.0622,0.0627,0.0627,0.0671,0.0672,0.0732,0,0,0,0.0549,0.0543,0.056,0.0555,0.058,0.0598,0.0591,0.0611,0.0613,0.0622,0.0627,0.0627,0.0671,0.0672,0.0729,0.0754,0,0,0,0.0541,0.0542,0.0551,0.0555,0.0579,0.0598,0.0606,0.0612,0.062,0.0627,0.0627,0.067,0.0671,0.0727,0.075,0.0797,0,0,0,0.0525,0.0552,0.0551,0.0587,0.0579,0.0626,0.0606,0.0635,0.0646,0.0627,0.0671,0.0672,0.0726,0.0747,0.0794,0.0852,0.0869,0,0,0.0553,0.0555,0.0578,0.0579,0.0632,0.0618,0.067,0.0672,0.0656,0.066,0.0662,0.073,0.0749,0.0796,0.0908,0.0924,0,0,0,0.0583,0.06,0.0616,0.0646,0.0672,0.07,0.0702,0.0706,0.0722,0.0668,0.0733,0.0743,0.0771,0.08,0.0813,0.0676,0.0676,0.0676,0.0676,0.0602,0.0625,0.0668,0.07,0.0728,0.0757,0.0781,0.0785,0.0763,0.0782,0.0794,0.0873,0.0905,0.0915,0.0797,0.0797,0.0798,0.0798,0.0798,0.0648,0.0677,0.0704,0.0753,0.0782,0.082,0.0856,0.0856,0.0895,0.0854,0.0879,0.0864,0.0933,0.0803,0.0802,0.0801,0.0801,0.08,0.08,0.0661,0.068,0.0709,0.0772,0.0824,0.086,0.0924,0.0941,0.0949,0.0978,0.1009,0.1008,0.0912,0.0995,0.0995,0.0995,0.0996,0.0996,0.0996,0.0661,0.0694,0.0732,0.0793,0.083,0.0892,0.0967,0.1011,0.1075,0.1082,0.1082,0.094,0.0933,0.0923,0.1001,0.1,0.1,0.0999,0.0999,0.0688,0.0692,0.075,0.0786,0.0869,0.0934,0.1009,0.1134,0.1183,0.1228,0.1143,0.1138,0.1125,0.1115,0.1109,0.1231,0.1231,0.1231,0.1231,0.0692,0.0702,0.0766,0.0816,0.0883,0.0952,0.1074,0.1189,0.1264,0.1284,0.1281,0.1244,0.1235,0.1224,0.1211,0.1205,0.1352,0.1352,0.1352,0.071,0.0728,0.0766,0.0813,0.0884,0.0973,0.1082,0.1169,0.1264,0.1352,0.1255,0.1248,0.1185,0.1173,0.1145,0.1129,0.1114,0,0]},{"header":{"parameterUnit":"m.s-1","parameterCategory":2,"la1":30.2992,"la2":30.254,"lo1":-89.0895,"lo2":-89.0443,"dy":0.0025,"dx":0.0025,"nx":19,"ny":19,"refTime":"2026-04-30T21:00:00:Z","depth":"2","parameterNumber":3,"parameterNumberName":"V-component_of_CURRENTS"},"data":[0,0,0,-0.0579,-0.0579,-0.0594,-0.0595,-0.0627,-0.0627,0,0,0,0,0,0,0,0,0,0,0,-0.0573,-0.0573,-0.0579,-0.0579,-0.0594,-0.0595,-0.0627,-0.0627,0,0,0,0,0,0,0,0,0,0,0,-0.0573,-0.0573,-0.0573,-0.0579,-0.0594,-0.0595,-0.0627,-0.0612,0,0,0,0,0,0,0,0,0,0,-0.0596,-0.0587,-0.0573,-0.0573,-0.058,-0.0594,-0.0595,-0.0611,-0.0613,-0.0624,0,-0.0625,0,-0.0628,-0.063,-0.063,0,0,0,-0.058,-0.0585,-0.0591,-0.0573,-0.058,-0.0594,-0.0588,-0.0612,-0.0614,-0.0626,-0.0626,-0.0627,-0.0629,-0.063,-0.063,-0.0649,-0.0649,0,0,-0.0579,-0.0575,-0.059,-0.0592,-0.0583,-0.0587,-0.0588,-0.0613,-0.0615,-0.0626,-0.0628,-0.0629,-0.063,-0.0631,-0.0649,-0.0649,0,0,0,-0.0576,-0.0574,-0.0579,-0.0591,-0.0593,-0.0588,-0.0589,-0.0613,-0.0616,-0.0628,-0.063,-0.0631,-0.0631,-0.0649,-0.0649,-0.062,0,0,0,-0.0576,-0.0573,-0.0579,-0.0576,-0.0593,-0.0602,-0.0588,-0.0614,-0.0617,-0.063,-0.0631,-0.0631,-0.0649,-0.0649,-0.0621,-0.0598,0,0,0,-0.0572,-0.0572,-0.0574,-0.0576,-0.0583,-0.0601,-0.0604,-0.0614,-0.0618,-0.063,-0.0632,-0.0649,-0.0649,-0.0622,-0.06,-0.0602,0,0,0,-0.0568,-0.0556,-0.0574,-0.0562,-0.0583,-0.0577,-0.0604,-0.0606,-0.0613,-0.0631,-0.0649,-0.0649,-0.0622,-0.0602,-0.0603,-0.0576,-0.057,0,0,-0.0546,-0.0553,-0.0545,-0.0561,-0.0545,-0.0575,-0.0567,-0.0591,-0.0616,-0.0642,-0.0643,-0.0621,-0.06,-0.0602,-0.0566,-0.056,0,0,0,-0.0533,-0.0526,-0.0525,-0.0522,-0.053,-0.0537,-0.0563,-0.0582,-0.0608,-0.062,-0.0625,-0.0613,-0.0615,-0.0602,-0.0597,-0.0648,-0.0648,-0.0648,-0.0648,-0.0495,-0.0499,-0.048,-0.0485,-0.0487,-0.0513,-0.0524,-0.0557,-0.0586,-0.0596,-0.0594,-0.0578,-0.0563,-0.0559,-0.0604,-0.0604,-0.0604,-0.0604,-0.0604,-0.0451,-0.0434,-0.0445,-0.0429,-0.0446,-0.0449,-0.049,-0.0518,-0.055,-0.0573,-0.0577,-0.0576,-0.0552,-0.0601,-0.0602,-0.0602,-0.0602,-0.0602,-0.0603,-0.042,-0.0409,-0.0408,-0.0389,-0.0385,-0.041,-0.0412,-0.0459,-0.0515,-0.052,-0.0526,-0.0527,-0.056,-0.0532,-0.0532,-0.0531,-0.0531,-0.0531,-0.0531,-0.0383,-0.0379,-0.0356,-0.0344,-0.0332,-0.0332,-0.0369,-0.0393,-0.0447,-0.0486,-0.0487,-0.0554,-0.0557,-0.0557,-0.053,-0.053,-0.053,-0.053,-0.053,-0.0327,-0.0336,-0.0301,-0.0284,-0.0256,-0.0186,-0.0265,-0.0316,-0.0371,-0.0399,-0.0475,-0.0477,-0.0486,-0.049,-0.0489,-0.0446,-0.0446,-0.0446,-0.0446,-0.029,-0.0291,-0.0246,-0.0214,-0.0182,-0.0123,-0.0032,0.0006,-0.0128,-0.0166,-0.0177,-0.0165,-0.0177,-0.0167,-0.0179,-0.0171,-0.0044,-0.0043,-0.0042,-0.0246,-0.0247,-0.0205,-0.0186,-0.0146,-0.0022,0.0176,0.0341,0.0178,-0.0017,-0.0007,-0.0438,-0.0454,-0.0459,-0.0474,-0.048,-0.048,0,0]}],[{"header":{"parameterUnit":"m.s-1","parameterCategory":2,"la1":30.2992,"la2":30.254,"lo1":-89.0895,"lo2":-89.0443,"dy":0.0025,"dx":0.0025,"nx":19,"ny":19,"refTime":"2026-04-30T21:00:00:Z","depth":"4","parameterNumber":2,"parameterNumberName":"U-component_of_CURRENTS"},"data":[0,0,0,0.0639,0.0641,0.0721,0.0721,0.0764,0.0764,0,0,0,0,0,0,0,0,0,0,0,0.0613,0.0613,0.0639,0.0641,0.0721,0.0721,0.0764,0.0764,0,0,0,0,0,0,0,0,0,0,0,0.0612,0.0613,0.0614,0.0642,0.0721,0.0721,0.0764,0.0717,0,0,0,0,0,0,0,0,0,0,0.0647,0.0632,0.0613,0.0614,0.0642,0.0721,0.0721,0.0715,0.072,0.0712,0,0.0733,0,0.075,0.0766,0.0766,0,0,0,0.0637,0.0629,0.0651,0.0614,0.0643,0.0721,0.0684,0.0718,0.0723,0.0718,0.0734,0.0736,0.0751,0.0766,0.0766,0.081,0.081,0,0,0.0632,0.0624,0.0648,0.0655,0.0674,0.0681,0.0686,0.0722,0.0729,0.0734,0.0737,0.0752,0.0766,0.0766,0.0809,0.081,0,0,0,0.0623,0.062,0.0643,0.0652,0.0672,0.0684,0.0689,0.0728,0.0736,0.0738,0.0752,0.0766,0.0767,0.0809,0.081,0.0861,0,0,0,0.062,0.0615,0.0641,0.0636,0.0672,0.071,0.0694,0.0734,0.0739,0.0752,0.0766,0.0767,0.0809,0.0809,0.0859,0.0881,0,0,0,0.0607,0.0614,0.0626,0.0636,0.0672,0.071,0.072,0.0735,0.0747,0.0766,0.0767,0.0809,0.0809,0.0858,0.0878,0.0924,0,0,0,0.059,0.0615,0.0627,0.0661,0.0672,0.0726,0.072,0.0759,0.0778,0.0766,0.0809,0.081,0.0857,0.0876,0.0922,0.0803,0,0,0,0.0608,0.0617,0.0637,0.065,0.0703,0.0714,0.077,0.0789,0.0782,0.0791,0.0793,0.086,0.0878,0.0923,0.084,0,0,0,0,0.0635,0.0651,0.067,0.0707,0.0742,0.0785,0.0806,0.0818,0.0843,0.0797,0.0858,0.0868,0.0895,0.0818,0.0813,0.0813,0.0812,0.0812,0.0812,0.0642,0.0668,0.0708,0.0748,0.0784,0.0835,0.0869,0.0885,0.0873,0.0892,0.0909,0.0976,0.0896,0.0907,0.0907,0.0907,0.0907,0.0908,0.0908,0.0669,0.0692,0.0734,0.0783,0.0831,0.088,0.0931,0.0941,0.099,0.0956,0.098,0.0876,0.0913,0.0912,0.0911,0.091,0.091,0.091,0.0909,0.0667,0.0682,0.0721,0.079,0.0858,0.0914,0.0975,0.1013,0.1034,0.1065,0.0989,0.1017,0.1015,0.1083,0.1084,0.1084,0.1084,0.1085,0.1085,0.0645,0.0684,0.0725,0.0799,0.0844,0.0915,0.1008,0.1044,0.1085,0.1036,0.1086,0.1035,0.103,0.1025,0.109,0.1089,0.1088,0.1088,0.1087,0.064,0.0659,0.071,0.0754,0.0844,0.0882,0.0986,0.1031,0.107,0.1064,0.1021,0.1023,0.0996,0.0992,0.0984,0.104,0.1039,0.1037,0,0.0626,0.0641,0.0697,0.0743,0.0789,0.0857,0.0882,0.0943,0.0983,0.0944,0.107,0.1019,0.1019,0.0986,0.098,0.0969,0,0,0,0.0622,0.064,0.0666,0.0715,0.0755,0.0803,0.0883,0.0878,0.0967,0.0981,0.1006,0.1014,0.1069,0.1104,0.1068,0.1061,0.1051,0,0]},{"header":{"parameterUnit":"m.s-1","parameterCategory":2,"la1":30.2992,"la2":30.254,"lo1":-89.0895,"lo2":-89.0443,"dy":0.0025,"dx":0.0025,"nx":19,"ny":19,"refTime":"2026-04-30T21:00:00:Z","depth":"4","parameterNumber":3,"parameterNumberName":"V-component_of_CURRENTS"},"data":[0,0,0,0.023,0.0229,0.017,0.017,0.0082,0.0082,0,0,0,0,0,0,0,0,0,0,0,0.0246,0.0245,0.023,0.0229,0.017,0.017,0.0082,0.0082,0,0,0,0,0,0,0,0,0,0,0,0.0246,0.0245,0.0245,0.0229,0.017,0.017,0.0083,0.0128,0,0,0,0,0,0,0,0,0,0,0.0186,0.0201,0.0245,0.0245,0.0229,0.017,0.017,0.013,0.0125,0.0109,0,0.0101,0,0.0095,0.0076,0.0076,0,0,0,0.022,0.0205,0.0196,0.0245,0.0228,0.017,0.0194,0.0127,0.0122,0.0102,0.0099,0.0096,0.0093,0.0076,0.0075,0.0013,0.0013,0,0,0.0223,0.0227,0.02,0.0192,0.0214,0.0196,0.0192,0.0124,0.0114,0.0099,0.0094,0.0092,0.0075,0.0075,0.0013,0.0013,0,0,0,0.0239,0.0229,0.0221,0.0196,0.0189,0.0195,0.019,0.0117,0.0116,0.0093,0.0091,0.0075,0.0074,0.0013,0.0013,0.0035,0,0,0,0.024,0.0239,0.0223,0.0223,0.0191,0.0153,0.0185,0.0121,0.0113,0.0091,0.0075,0.0073,0.0013,0.0013,0.0035,0.0063,0,0,0,0.0248,0.024,0.0235,0.0223,0.0203,0.0154,0.0149,0.0119,0.0112,0.0076,0.0073,0.0013,0.0013,0.0035,0.0062,0.0065,0,0,0,0.0251,0.0256,0.0235,0.0237,0.0204,0.0189,0.0149,0.0117,0.0088,0.0074,0.0013,0.0013,0.0034,0.0061,0.0064,0.0138,0,0,0,0.0266,0.0257,0.0262,0.0242,0.0245,0.0197,0.0181,0.0118,0.0078,0.0034,0.0032,0.0035,0.0062,0.0065,0.0123,0,0,0,0,0.0273,0.0276,0.0273,0.0265,0.0244,0.0217,0.0158,0.0125,0.0062,0.0062,0.0024,0.004,0.0042,0.0081,0.0012,0.0012,0.0012,0.0012,0.0012,0.0299,0.0295,0.0304,0.0292,0.0275,0.022,0.0189,0.013,0.0082,0.0052,0.005,0.0058,0.01,0.0029,0.0029,0.0029,0.0029,0.0029,0.0029,0.0335,0.0344,0.0329,0.0334,0.0301,0.0273,0.0206,0.0158,0.01,0.0063,0.0062,0.0091,0.0031,0.0031,0.0031,0.0031,0.003,0.003,0.003,0.0359,0.0364,0.0361,0.0365,0.0347,0.0298,0.0286,0.0209,0.0131,0.012,0.014,0.0075,0.0083,0.0102,0.0102,0.0102,0.0102,0.0102,0.0102,0.0382,0.0384,0.0398,0.0396,0.0397,0.038,0.0321,0.0302,0.0218,0.0186,0.0119,0.0083,0.008,0.0087,0.0104,0.0104,0.0104,0.0104,0.0103,0.0416,0.0409,0.0439,0.0449,0.0467,0.0462,0.0418,0.0378,0.0353,0.0325,0.0218,0.0212,0.0213,0.0208,0.0219,0.0276,0.0277,0.0278,0,0.0435,0.0436,0.0477,0.0513,0.0541,0.0516,0.0517,0.0486,0.0387,0.0366,0.0342,0.0221,0.0216,0.0218,0.0215,0.0229,0,0,0,0.0459,0.0467,0.0506,0.0538,0.0573,0.0548,0.0515,0.0498,0.0388,0.0419,0.0304,0.0297,0.0263,0.011,0.0098,0.0095,0.0105,0,0]}]]